TimeEST,TemperatureF,Dew PointF,Humidity,Sea Level PressureIn,VisibilityMPH,Wind Direction,Wind SpeedMPH,Gust SpeedMPH,PrecipitationIn,Events,Conditions,WindDirDegrees,DateUTC
12:53 AM,64.9,63.0,93,30.15,9.0,Calm,Calm,-,N/A,,Clear,0,2012-02-02 05:53:00
1:53 AM,66.0,63.0,90,30.14,8.0,Calm,Calm,-,N/A,,Clear,0,2012-02-02 06:53:00
2:53 AM,64.9,63.0,93,30.14,6.0,Calm,Calm,-,N/A,,Clear,0,2012-02-02 07:53:00
3:53 AM,66.0,63.0,90,30.14,8.0,North,5.8,-,N/A,,Clear,10,2012-02-02 08:53:00
4:53 AM,64.9,62.1,90,30.14,8.0,NNE,3.5,-,N/A,,Clear,30,2012-02-02 09:53:00
5:53 AM,64.0,62.1,93,30.15,6.0,Calm,Calm,-,N/A,,Clear,0,2012-02-02 10:53:00
6:53 AM,64.0,62.1,93,30.15,6.0,NE,3.5,-,N/A,,Clear,40,2012-02-02 11:53:00
7:53 AM,64.9,63.0,93,30.16,7.0,NE,3.5,-,N/A,,Clear,40,2012-02-02 12:53:00
8:53 AM,68.0,64.9,90,30.16,7.0,NE,8.1,-,N/A,,Clear,50,2012-02-02 13:53:00
9:53 AM,73.9,66.9,79,30.17,10.0,East,5.8,-,N/A,,Clear,100,2012-02-02 14:53:00
10:53 AM,75.9,66.9,74,30.15,10.0,ESE,8.1,-,N/A,,Scattered Clouds,110,2012-02-02 15:53:00
11:53 AM,77.0,66.0,69,30.14,10.0,ESE,8.1,-,N/A,,Scattered Clouds,120,2012-02-02 16:53:00
12:18 PM,78.8,64.4,61,30.13,10.0,SSE,6.9,-,N/A,,Mostly Cloudy,150,2012-02-02 17:18:00
12:53 PM,78.1,64.9,64,30.11,10.0,ESE,5.8,-,N/A,,Scattered Clouds,120,2012-02-02 17:53:00
1:53 PM,77.0,66.0,69,30.09,10.0,West,6.9,-,N/A,,Mostly Cloudy,280,2012-02-02 18:53:00
2:53 PM,75.9,66.0,71,30.08,10.0,NW,6.9,-,N/A,,Partly Cloudy,310,2012-02-02 19:53:00
3:53 PM,75.0,66.0,73,30.07,10.0,WNW,8.1,-,N/A,,Clear,290,2012-02-02 20:53:00
4:53 PM,73.9,66.9,79,30.08,10.0,WNW,6.9,-,N/A,,Partly Cloudy,290,2012-02-02 21:53:00
5:53 PM,73.0,66.9,81,30.09,10.0,WNW,3.5,-,N/A,,Overcast,300,2012-02-02 22:53:00
6:53 PM,73.0,66.0,79,30.12,10.0,East,10.4,-,N/A,,Overcast,80,2012-02-02 23:53:00
7:53 PM,73.0,66.0,79,30.13,10.0,North,3.5,-,0.00,,Overcast,350,2012-02-03 00:53:00
8:53 PM,71.1,64.0,78,30.14,10.0,East,10.4,-,N/A,,Overcast,80,2012-02-03 01:53:00
9:53 PM,70.0,64.9,84,30.15,10.0,East,5.8,-,N/A,,Overcast,100,2012-02-03 02:53:00
10:53 PM,71.1,64.0,78,30.16,9.0,East,8.1,-,N/A,,Overcast,100,2012-02-03 03:53:00
11:53 PM,71.1,64.0,78,30.14,10.0,East,5.8,-,N/A,,Overcast,100,2012-02-03 04:53:00